地球静止运行环境卫星 7星 (GOES 7)

导读

GOES 7是美国于1987年2月26日发射的地球静止环境业务卫星,属于GOES同步环境应用卫星家族。它最初用于气象观测任务,后因轨道调整燃料消耗问题,被美国海洋暨大气总署转让,转为非营利用途,为太平洋岛国提供通讯与教育服务,延续了卫星使用寿命。

基本信息
目录编号:
17561
目录名称:
GOES 7
国际标识:
1987-022A
轨道中心:
EARTH
卫星名称:
地球静止运行环境卫星 7星
卫星全名:
地球静止运行环境卫星 7星 (GOES 7)
卫星状态:
在轨 (已飞行14396 天)
发射日期:
1987-02-26 UTC
国别 :
美国 (US)
星等 :
--
轨道信息
数据来源 国际轨道数据 AOE轨道数据
星历时间 2026-07-26T07:51:32+0800
1天前
查看轨道信息
2026-07-27T08:00:00+0800
23小时前
查看轨道信息
半长轴 42269.76km 42269.901km
偏心率 0.0002461 0.0002414
轨道倾角 12.891° 12.890°
近地点辐角 47.925° 47.528°
升交点赤经 337.370° 337.361°
平近点角 310.436° 312.590°
近地点 35881.22km 35881.56km
远地点 35902.026km 35901.968km
周期 1441.466分钟 1441.473分钟
每日圈数 0.998983 0.998978
详细信息
卫星平台:
HS-377
平衡模式:
自旋稳定
覆盖范围:
全球
制造商(研发单位):
飞歌公司
制造商所在国:
美国
使用方式:
暂无
卫星简介
地球静止环境业务卫星是美国国家海洋和大气管理局(NOAA)与美国国家航空航天局(NASA)共同发展的民用静止轨道气象系列卫星。[1]美国第一代地球静止轨道气象卫星系列。英文缩写为GOES。该卫星已退役。
2D轨道图
3D轨道图
轨道高度分析图
轨道倾角分析图
轨道综合分析图
查看轨道综合分析图